Manitowoc, WI

6:24 PM CDT on August 20, 2017 (GMT -0500)
Manitowoc County

Weather History for KMTW - October, 2013

Change the Weather History Date:

Wednesday, October 9, 2013

  Actual Average Record
Temperature  
Mean Temperature 60 °F -  
Max Temperature 69 °F 58 °F 77 °F (1961)
Min Temperature 50 °F 42 °F 28 °F (1989)
Degree Days  
Heating Degree Days 6    
Growing Degree Days 10 (Base 50)    
Moisture  
Dew Point 50 °F    
Average Humidity 77    
Maximum Humidity 94    
Minimum Humidity 56    
Precipitation  
Precipitation 0.00 in - - ()
Sea Level Pressure  
Sea Level Pressure 30.21 in    
Wind  
Wind Speed 7 mph (South)    
Max Wind Speed 18 mph    
Max Gust Speed 17 mph    
Visibility 9 miles    
Events      
Averages and records for this station are not official NWS values.
T = Trace of Precipitation, MM = Missing Value Source: NWS Daily Summary

Daily Weather History Graph

Daily Weather History Graph

Search for Another Location

Airport or City:

Trip Planner

Search our weather history database for the weather conditions in past years. The results will help you decide how hot, cold, wet, or windy it might be!

Date:

Astronomy

Oct. 09, 2013 Rise Set
Actual Time 6:58 AM CDT 6:16 PM CDT
Civil Twilight 6:29 AM CDT 6:45 PM CDT
Nautical Twilight 5:55 AM CDT 7:19 PM CDT
Astronomical Twilight 5:22 AM CDT 7:52 PM CDT
Moon 12:01 PM CDT (10/9) 9:42 PM CDT (10/9)
Length of Visible Light 12h 16m
Length of Day
11h 18m
Waxing Crescent, 25% of the Moon is Illuminated
Oct 9
Waxing Crescent
Oct 11
First Quarter
Oct 18
Full
Oct 26
Last Quarter
Nov 3
New

Hourly Weather History & Observations

Time (CDT) Temp. Dew Point Humidity Pressure Visibility Wind Dir Wind Speed Gust Speed Precip Events Conditions
12:56 AM 60.1 °F 52.0 °F 75% 30.20 in 10.0 mi SSW 8.1 mph - N/A   Clear
1:56 AM 57.9 °F 52.0 °F 81% 30.21 in 10.0 mi SSW 4.6 mph - N/A   Clear
2:56 AM 55.9 °F 51.1 °F 84% 30.22 in 10.0 mi South 4.6 mph - N/A   Clear
3:56 AM 53.1 °F 48.0 °F 83% 30.23 in 10.0 mi SSW 4.6 mph - N/A   Clear
4:56 AM 52.0 °F 48.0 °F 86% 30.24 in 10.0 mi SSW 5.8 mph - N/A   Clear
5:56 AM 51.1 °F 46.9 °F 86% 30.26 in 10.0 mi South 4.6 mph - N/A   Clear
6:56 AM 51.1 °F 48.0 °F 89% 30.27 in 10.0 mi South 3.5 mph - N/A   Clear
7:56 AM 53.1 °F 48.0 °F 83% 30.29 in 10.0 mi SSW 5.8 mph - N/A   Clear
10:24 AM 64.4 °F 51.8 °F 64% 30.22 in 10.0 mi South 6.9 mph - N/A   Unknown
10:56 AM 66.9 °F 52.0 °F 59% 30.23 in 10.0 mi South 9.2 mph - N/A   Clear
11:56 AM 69.1 °F 53.1 °F 57% 30.22 in 10.0 mi South 8.1 mph - N/A   Clear
12:56 PM 66.0 °F 52.0 °F 60% 30.21 in 10.0 mi SSE 11.5 mph - N/A   Clear
1:56 PM 66.0 °F 52.0 °F 60% 30.20 in 10.0 mi SSE 12.7 mph 17.3 mph N/A   Clear
2:56 PM 64.9 °F 48.9 °F 56% 30.19 in 10.0 mi South 18.4 mph - N/A   Clear
3:56 PM 64.0 °F 48.0 °F 56% 30.19 in 10.0 mi South 17.3 mph - N/A   Clear
4:56 PM 63.0 °F 51.1 °F 65% 30.18 in 10.0 mi South 11.5 mph - N/A   Clear
5:56 PM 61.0 °F 51.1 °F 70% 30.18 in 10.0 mi South 8.1 mph - N/A   Clear
6:56 PM 57.0 °F 51.1 °F 81% 30.18 in 10.0 mi South 8.1 mph - N/A   Clear
7:56 PM 55.9 °F 51.1 °F 84% 30.18 in 10.0 mi South 6.9 mph - N/A   Clear
8:56 PM 54.0 °F 50.0 °F 86% 30.18 in 10.0 mi South 5.8 mph - N/A   Clear
9:56 PM 53.1 °F 50.0 °F 89% 30.18 in 10.0 mi SSW 3.5 mph - N/A   Clear
10:56 PM 53.1 °F 50.0 °F 89% 30.24 in 10.0 mi Calm Calm - N/A   Clear
11:41 PM 50.0 °F 48.2 °F 94% 30.18 in 1.2 mi Calm Calm - N/A   Clear
11:52 PM 50.0 °F 48.2 °F 94% 30.18 in 4.0 mi Calm Calm - N/A   Clear
11:56 PM 50.0 °F 48.0 °F 93% 30.24 in 6.0 mi Calm Calm - N/A   Clear